Date String (YYYY-MM-DD hh:mm:ss) UTC,Instrument flags,Ambient pressure (hPa),Sample flow (lpm),Bypass flow (lpm),Sample temperature (°C),Ambient temperature (°C),ASC tube jacket temperature (°C),LED temperature (°C),Box temperature (°C),Sample RH (%),Span deviation,Mass concentration (μg/m³),Mass concentration (μg/m³),Mass concentration (μg/m³)
DateTimeUTC,F1_M11,P_M11,Q1_M11,Q2_M11,T1_M11,T2_M11,T3_M11,T4_M11,T5_M11,U1_M11,ZSPAN_M11,X0_M11,X2_M11,X1_M11
2022-07-09 15:00:00,,0833.6,5.00,0.00,29.6,27.9,00.0,38.4,31.4,28.5,0000.0,0008.71,0004.43,0003.78
2022-07-09 15:01:00,,0833.6,4.99,0.00,29.6,28.0,00.0,38.4,31.4,28.3,0000.0,0009.37,0004.45,0003.79
2022-07-09 15:02:00,,0833.6,4.99,0.00,29.6,28.2,00.0,38.4,31.5,28.2,0000.0,0010.08,0004.48,0003.79
2022-07-09 15:03:00,,0833.5,4.99,0.00,29.7,28.3,00.0,38.4,31.5,28.0,0000.0,0010.08,0004.47,0003.79
2022-07-09 15:04:00,,0833.5,5.00,0.00,29.7,28.4,00.0,38.4,31.6,27.8,0000.0,0010.03,0004.43,0003.78
2022-07-09 15:05:00,,0833.5,5.00,0.00,29.7,28.5,00.0,38.5,31.6,27.8,0000.0,0010.47,0004.41,0003.77
2022-07-09 15:06:00,,0833.6,5.00,0.00,29.8,28.6,00.0,38.5,31.7,27.6,0000.0,0010.71,0004.39,0003.76
2022-07-09 15:07:00,,0833.6,5.00,0.00,29.8,28.6,00.0,38.5,31.7,28.0,0000.0,0010.61,0004.35,0003.75
2022-07-09 15:08:00,,0833.6,5.00,0.00,29.8,28.1,00.0,38.4,31.7,27.5,0000.0,0010.38,0004.36,0003.75
2022-07-09 15:09:00,,0833.6,4.99,0.00,29.7,27.5,00.0,38.4,31.5,27.1,0000.0,0010.29,0004.37,0003.74
2022-07-09 15:10:00,,0833.6,4.99,0.00,29.7,27.5,00.0,38.4,31.5,26.7,0000.0,0010.57,0004.38,0003.73
2022-07-09 15:11:00,,0833.6,5.00,0.00,29.6,27.5,00.0,38.4,31.4,26.7,0000.0,0010.70,0004.35,0003.72
2022-07-09 15:12:00,,0833.6,5.00,0.00,29.6,27.7,00.0,38.4,31.4,27.7,0000.0,0010.54,0004.34,0003.71
2022-07-09 15:13:00,,0833.6,5.00,0.00,29.6,27.8,00.0,38.4,31.4,29.1,0000.0,0010.15,0004.35,0003.71
2022-07-09 15:14:00,,0833.6,5.00,0.00,29.6,28.0,00.0,38.4,31.4,28.7,0000.0,0010.18,0004.36,0003.71
2022-07-09 15:15:00,,0833.6,5.00,0.00,29.6,28.1,00.0,38.4,31.5,28.4,0000.0,0010.19,0004.35,0003.70
2022-07-09 15:16:00,,0833.6,5.01,0.00,29.7,28.3,00.0,38.4,31.5,29.1,0000.0,0010.53,0004.44,0003.71
2022-07-09 15:17:00,,0833.6,5.00,0.00,29.7,28.4,00.0,38.4,31.6,29.3,0000.0,0011.33,0004.46,0003.71
2022-07-09 15:18:00,,0833.6,4.99,0.00,29.7,28.5,00.0,38.4,31.6,29.0,0000.0,0011.38,0004.46,0003.72
2022-07-09 15:19:00,,0833.6,4.99,0.00,29.7,28.4,00.0,38.4,31.6,28.8,0000.0,0011.97,0004.49,0003.72
2022-07-09 15:20:00,,0833.6,5.01,0.00,29.7,27.8,00.0,38.4,31.5,29.1,0000.0,0012.57,0004.52,0003.73
2022-07-09 15:21:00,,0833.6,5.01,0.00,29.7,27.4,00.0,38.3,31.5,29.3,0000.0,0012.30,0004.51,0003.73
2022-07-09 15:22:00,,0833.6,4.99,0.00,29.6,27.4,00.0,38.3,31.4,29.4,0000.0,0012.34,0004.55,0003.74
2022-07-09 15:23:00,,0833.6,5.00,0.00,29.6,27.5,00.0,38.3,31.3,29.7,0000.0,0012.73,0004.61,0003.74
2022-07-09 15:24:00,,0833.6,5.00,0.00,29.6,27.7,00.0,38.3,31.3,29.6,0000.0,0012.52,0004.59,0003.74
2022-07-09 15:25:00,,0833.6,4.99,0.00,29.6,27.8,00.0,38.3,31.4,29.3,0000.0,0012.65,0004.56,0003.74
2022-07-09 15:26:00,,0833.6,5.00,0.00,29.6,28.0,00.0,38.3,31.4,29.2,0000.0,0012.74,0004.57,0003.76
2022-07-09 15:27:00,,0833.6,5.00,0.00,29.6,28.1,00.0,38.4,31.5,28.9,0000.0,0012.19,0004.54,0003.77
2022-07-09 15:28:00,,0833.6,5.00,0.00,29.6,28.3,00.0,38.4,31.5,29.1,0000.0,0010.89,0004.49,0003.79
2022-07-09 15:29:00,,0833.6,5.00,0.00,29.6,28.4,00.0,38.4,31.5,28.6,0000.0,0010.80,0004.50,0003.79
2022-07-09 15:30:00,,0833.6,5.00,0.00,29.7,28.4,00.0,38.4,31.6,28.4,0000.0,0010.37,0004.52,0003.81
2022-07-09 15:31:00,,0833.6,5.01,0.00,29.7,27.8,00.0,38.3,31.5,28.5,0000.0,0009.63,0004.51,0003.82
2022-07-09 15:32:00,,0833.6,5.00,0.00,29.6,27.4,00.0,38.3,31.4,28.6,0000.0,0010.06,0004.56,0003.82
2022-07-09 15:33:00,,0833.6,4.99,0.00,29.6,27.4,00.0,38.3,31.4,29.0,0000.0,0009.99,0004.56,0003.84
2022-07-09 15:34:00,,0833.6,4.99,0.00,29.5,27.5,00.0,38.3,31.3,28.8,0000.0,0009.36,0004.55,0003.85
2022-07-09 15:35:00,,0833.6,5.00,0.00,29.5,27.6,00.0,38.3,31.3,28.6,0000.0,0009.37,0004.56,0003.86
2022-07-09 15:36:00,,0833.6,4.99,0.00,29.5,27.8,00.0,38.3,31.3,28.5,0000.0,0009.24,0004.58,0003.86
2022-07-09 15:37:00,,0833.6,5.01,0.00,29.5,27.9,00.0,38.3,31.4,28.6,0000.0,0009.06,0004.55,0003.85
2022-07-09 15:38:00,,0833.6,5.00,0.00,29.5,28.1,00.0,38.3,31.4,28.2,0000.0,0009.32,0004.51,0003.84
2022-07-09 15:39:00,,0833.6,5.00,0.00,29.6,28.2,00.0,38.3,31.5,27.7,0000.0,0009.83,0004.52,0003.83
2022-07-09 15:40:00,,0833.6,4.99,0.00,29.6,28.4,00.0,38.3,31.5,27.4,0000.0,0010.00,0004.51,0003.81
2022-07-09 15:41:00,,0833.6,5.00,0.00,29.6,28.4,00.0,38.3,31.6,27.8,0000.0,0009.98,0004.50,0003.81
2022-07-09 15:42:00,,0833.6,5.00,0.00,29.6,28.0,00.0,38.3,31.5,28.1,0000.0,0010.84,0004.51,0003.80
2022-07-09 15:43:00,,0833.6,4.99,0.00,29.6,27.5,00.0,38.3,31.4,28.4,0000.0,0010.78,0004.48,0003.79
2022-07-09 15:44:00,,0833.6,5.00,0.00,29.6,27.4,00.0,38.2,31.4,28.5,0000.0,0011.64,0004.49,0003.79
2022-07-09 15:45:00,,0833.6,4.99,0.00,29.5,27.5,00.0,38.2,31.3,28.5,0000.0,0012.02,0004.45,0003.78
2022-07-09 15:46:00,,0833.6,5.00,0.00,29.5,27.6,00.0,38.2,31.3,28.6,0000.0,0012.07,0004.44,0003.78
2022-07-09 15:47:00,,0833.6,4.99,0.00,29.5,27.8,00.0,38.3,31.3,28.4,0000.0,0012.48,0004.42,0003.78
2022-07-09 15:48:00,,0833.6,5.01,0.00,29.5,27.9,00.0,38.3,31.4,28.6,0000.0,0012.66,0004.45,0003.79
2022-07-09 15:49:00,,0833.6,5.00,0.00,29.5,28.1,00.0,38.3,31.4,28.3,0000.0,0012.79,0004.52,0003.80
2022-07-09 15:50:00,,0833.6,5.00,0.00,29.6,28.2,00.0,38.3,31.5,28.3,0000.0,0012.64,0004.55,0003.80
2022-07-09 15:51:00,,0833.6,5.00,0.00,29.6,28.4,00.0,38.3,31.5,27.7,0000.0,0012.76,0004.55,0003.81
2022-07-09 15:52:00,,0833.6,5.00,0.00,29.6,28.3,00.0,38.3,31.5,27.4,0000.0,0013.18,0004.53,0003.80
2022-07-09 15:53:00,,0833.6,5.00,0.00,29.6,27.7,00.0,38.2,31.4,26.0,0000.0,0013.14,0004.54,0003.78
2022-07-09 15:54:00,,0833.6,5.00,0.00,29.5,27.4,00.0,38.2,31.4,27.1,0000.0,0013.65,0004.53,0003.76
2022-07-09 15:55:00,,0833.7,5.00,0.00,29.5,27.4,00.0,38.2,31.3,25.3,0000.0,0013.05,0004.51,0003.73
2022-07-09 15:56:00,,0833.6,5.00,0.00,29.5,27.5,00.0,38.2,31.3,25.8,0000.0,0013.14,0004.51,0003.70
2022-07-09 15:57:00,,0833.6,5.00,0.00,29.5,27.7,00.0,38.2,31.3,25.9,0000.0,0013.00,0004.48,0003.67
2022-07-09 15:58:00,,0833.6,5.00,0.00,29.5,27.8,00.0,38.2,31.3,25.1,0000.0,0012.61,0004.47,0003.64
2022-07-09 15:59:00,,0833.6,5.00,0.00,29.5,28.0,00.0,38.2,31.4,25.4,0000.0,0012.33,0004.43,0003.60
